DLH57P LEMD-EDDM

Flight info

Callsign DLH57P
Flight time N/A
Altitude 34000
Route PINAR N870 SEGRE N871 TOPTU DCT TOU DCT GAI DCT MEN DCT NINUN DCT LATAM DCT ETREK DCT LTP DCT SOPLO DCT OMASI DCT KINNI DCT LAMUR DCT KORED DCT NUNRI T103 BETOS BETOS1B
Aircraft A321/M-SDE3FGHIRWY/LB1

Departure

Time 2026-05-07 11:48
Airport Adolfo Suárez Madrid–Barajas Airport (LEMD)

Arrival

Time N/A
Airport Munich Airport (EDDM)
Time Latitude Longitude Altitude Speed Heading
2026-05-07 11:19 40.47137 -3.57017 1984 ft 0 kts 245°
2026-05-07 11:32 40.47145 -3.56995 1986 ft 4 kts 245°
2026-05-07 11:32 40.47157 -3.56963 1986 ft 4 kts 245°
2026-05-07 11:32 40.47167 -3.56935 1984 ft 4 kts 261°
2026-05-07 11:33 40.47163 -3.56907 1983 ft 4 kts 317°
2026-05-07 11:33 40.47144 -3.56891 1983 ft 1 kts 335°
2026-05-07 11:33 40.47141 -3.56888 1983 ft 1 kts 335°
2026-05-07 11:36 40.47143 -3.56890 1983 ft 1 kts 335°
2026-05-07 11:36 40.47154 -3.56897 1983 ft 2 kts 335°
2026-05-07 11:36 40.47178 -3.56911 1985 ft 5 kts 337°
2026-05-07 11:37 40.47225 -3.56922 1986 ft 8 kts 358°
2026-05-07 11:37 40.47291 -3.56902 1987 ft 11 kts 28°
2026-05-07 11:37 40.47354 -3.56816 1988 ft 14 kts 51°
2026-05-07 11:37 40.47422 -3.56788 1989 ft 9 kts 331°
2026-05-07 11:38 40.47465 -3.56831 1991 ft 8 kts 323°
2026-05-07 11:38 40.47510 -3.56875 1992 ft 8 kts 322°
2026-05-07 11:38 40.47572 -3.56938 1994 ft 15 kts 322°
2026-05-07 11:38 40.47666 -3.57034 1997 ft 18 kts 322°
2026-05-07 11:39 40.47751 -3.57120 1999 ft 13 kts 322°
2026-05-07 11:39 40.47821 -3.57192 2001 ft 12 kts 322°
2026-05-07 11:39 40.47886 -3.57259 2004 ft 11 kts 323°
2026-05-07 11:39 40.47947 -3.57320 2005 ft 11 kts 322°
2026-05-07 11:40 40.48019 -3.57392 2003 ft 15 kts 322°
2026-05-07 11:40 40.48112 -3.57487 2001 ft 19 kts 323°
2026-05-07 11:40 40.48225 -3.57602 1998 ft 22 kts 322°
2026-05-07 11:40 40.48343 -3.57718 1994 ft 19 kts 335°
2026-05-07 11:41 40.48445 -3.57812 1992 ft 17 kts 329°
2026-05-07 11:41 40.48538 -3.57877 1995 ft 12 kts 332°
2026-05-07 11:41 40.48598 -3.57915 1999 ft 9 kts 340°
2026-05-07 11:41 40.48670 -3.57925 1999 ft 11 kts 359°
2026-05-07 11:42 40.48741 -3.57927 1999 ft 9 kts 359°
2026-05-07 11:42 40.48797 -3.57928 1999 ft 8 kts 359°
2026-05-07 11:42 40.48853 -3.57928 1999 ft 9 kts
2026-05-07 11:42 40.48931 -3.57928 1999 ft 13 kts 359°
2026-05-07 11:43 40.49026 -3.57930 1999 ft 13 kts 358°
2026-05-07 11:43 40.49106 -3.57932 1999 ft 10 kts 359°
2026-05-07 11:43 40.49164 -3.57896 1997 ft 10 kts 55°
2026-05-07 11:43 40.49172 -3.57794 1993 ft 13 kts 90°
2026-05-07 11:44 40.49172 -3.57676 1990 ft 13 kts 90°
2026-05-07 11:44 40.49178 -3.57609 1991 ft 0 kts 67°
2026-05-07 11:46 40.49187 -3.57583 1989 ft 7 kts 66°
2026-05-07 11:46 40.49213 -3.57512 1987 ft 9 kts 64°
2026-05-07 11:46 40.49257 -3.57457 1986 ft 10 kts 17°
2026-05-07 11:46 40.49299 -3.57451 1983 ft 0 kts 360°
2026-05-07 11:47 40.49332 -3.57452 1983 ft 22 kts 359°
2026-05-07 11:47 40.49685 -3.57455 1985 ft 76 kts 358°
2026-05-07 11:47 40.50358 -3.57455 1991 ft 116 kts
2026-05-07 11:48 40.51287 -3.57466 1998 ft 149 kts
2026-05-07 11:48 40.52422 -3.57464 2034 ft 174 kts 359°
2026-05-07 11:48 40.53597 -3.57477 2524 ft 160 kts 359°
2026-05-07 11:48 40.54692 -3.57489 2942 ft 159 kts
2026-05-07 11:49 40.55811 -3.57233 3142 ft 168 kts 19°
2026-05-07 11:49 40.56933 -3.56775 3524 ft 170 kts 18°
2026-05-07 11:49 40.58099 -3.56330 3832 ft 179 kts 17°
2026-05-07 11:49 40.59325 -3.55892 4142 ft 186 kts 17°
2026-05-07 11:50 40.60596 -3.55436 4455 ft 193 kts 18°
2026-05-07 11:50 40.61926 -3.54931 4676 ft 203 kts 18°
2026-05-07 11:50 40.63324 -3.54404 4890 ft 214 kts 17°
2026-05-07 11:50 40.64838 -3.54128 5057 ft 228 kts
2026-05-07 11:51 40.66505 -3.53941 5135 ft 254 kts
2026-05-07 11:51 40.68343 -3.53740 5452 ft 268 kts 11°
2026-05-07 11:51 40.70039 -3.52989 6484 ft 251 kts 31°
2026-05-07 11:51 40.71430 -3.51586 6943 ft 258 kts 51°
2026-05-07 11:52 40.72497 -3.49613 7277 ft 272 kts 58°
2026-05-07 11:52 40.73566 -3.47527 7668 ft 283 kts 57°
2026-05-07 11:52 40.74696 -3.45331 8256 ft 287 kts 57°
2026-05-07 11:52 40.75823 -3.43146 8861 ft 290 kts 57°
2026-05-07 11:53 40.76967 -3.40933 9448 ft 293 kts 57°
2026-05-07 11:53 40.78108 -3.38731 10018 ft 297 kts 57°
2026-05-07 11:53 40.79296 -3.36435 10306 ft 310 kts 57°
2026-05-07 11:53 40.80542 -3.34025 10489 ft 326 kts 57°
2026-05-07 11:54 40.81855 -3.31480 10643 ft 342 kts 57°
2026-05-07 11:54 40.83225 -3.28829 10769 ft 357 kts 57°
2026-05-07 11:54 40.84627 -3.26073 11033 ft 365 kts 60°
2026-05-07 11:54 40.85692 -3.23019 11477 ft 366 kts 73°
2026-05-07 11:55 40.86361 -3.19759 11928 ft 368 kts 77°
2026-05-07 11:55 40.87006 -3.16478 12359 ft 371 kts 77°
2026-05-07 11:55 40.87659 -3.13174 12798 ft 373 kts 77°
2026-05-07 11:55 40.88319 -3.09844 13244 ft 376 kts 77°
2026-05-07 11:56 40.88982 -3.06485 13687 ft 379 kts 77°
2026-05-07 11:56 40.89648 -3.03105 14068 ft 382 kts 77°
2026-05-07 11:56 40.90318 -2.99696 14453 ft 384 kts 77°
2026-05-07 11:56 40.90991 -2.96264 14836 ft 386 kts 77°
2026-05-07 11:57 40.91665 -2.92826 15208 ft 388 kts 77°
2026-05-07 11:57 40.92339 -2.89368 15587 ft 389 kts 77°
2026-05-07 11:57 40.93014 -2.85894 15946 ft 391 kts 77°
2026-05-07 11:57 40.93691 -2.82401 16315 ft 393 kts 77°
2026-05-07 11:58 40.94373 -2.78892 16704 ft 395 kts 77°
2026-05-07 11:58 40.95059 -2.75354 17078 ft 397 kts 78°
2026-05-07 11:58 40.95743 -2.71810 17427 ft 399 kts 78°
2026-05-07 11:58 40.96421 -2.68287 17783 ft 402 kts 78°
2026-05-07 11:59 40.97108 -2.64692 18133 ft 404 kts 78°
2026-05-07 11:59 40.97801 -2.61076 18456 ft 406 kts 78°
2026-05-07 11:59 40.98499 -2.57440 18759 ft 409 kts 78°
2026-05-07 11:59 40.99200 -2.53780 19069 ft 411 kts 78°
2026-05-07 12:00 40.99903 -2.50111 19369 ft 413 kts 78°
2026-05-07 12:00 41.00613 -2.46403 19685 ft 414 kts 78°
2026-05-07 12:00 41.01402 -2.42726 19985 ft 418 kts 72°
2026-05-07 12:00 41.02632 -2.39221 20276 ft 422 kts 61°
2026-05-07 12:01 41.04327 -2.36022 20562 ft 426 kts 51°
2026-05-07 12:01 41.06434 -2.33251 20837 ft 430 kts 40°
2026-05-07 12:01 41.08777 -2.30771 21096 ft 432 kts 39°
2026-05-07 12:01 41.11125 -2.28287 21350 ft 434 kts 39°
2026-05-07 12:02 41.13493 -2.25772 21613 ft 435 kts 39°
2026-05-07 12:02 41.15854 -2.23255 21865 ft 437 kts 39°
2026-05-07 12:02 41.18229 -2.20719 22100 ft 439 kts 39°
2026-05-07 12:02 41.20585 -2.18204 22358 ft 440 kts 39°
2026-05-07 12:03 41.22979 -2.15652 22602 ft 442 kts 39°
2026-05-07 12:03 41.25382 -2.13089 22844 ft 444 kts 39°
2026-05-07 12:03 41.27794 -2.10512 23082 ft 445 kts 39°
2026-05-07 12:03 41.30214 -2.07927 23323 ft 447 kts 39°
2026-05-07 12:04 41.32647 -2.05324 23544 ft 449 kts 39°
2026-05-07 12:04 41.35085 -2.02705 23752 ft 451 kts 40°
2026-05-07 12:04 41.37530 -2.00077 23952 ft 453 kts 40°
2026-05-07 12:04 41.39983 -1.97442 24152 ft 454 kts 40°
2026-05-07 12:05 41.42450 -1.94792 24347 ft 456 kts 40°
2026-05-07 12:05 41.44921 -1.92132 24541 ft 457 kts 40°
2026-05-07 12:05 41.47403 -1.89460 24734 ft 459 kts 40°
2026-05-07 12:05 41.49895 -1.86778 24919 ft 460 kts 40°
2026-05-07 12:06 41.52390 -1.84088 25105 ft 461 kts 40°
2026-05-07 12:06 41.54891 -1.81388 25287 ft 463 kts 40°
2026-05-07 12:06 41.57399 -1.78679 25486 ft 464 kts 40°
2026-05-07 12:06 41.59918 -1.75956 25673 ft 466 kts 40°
2026-05-07 12:07 41.62441 -1.73223 25863 ft 468 kts 40°
2026-05-07 12:07 41.64973 -1.70474 26048 ft 469 kts 40°
2026-05-07 12:07 41.67504 -1.67723 26320 ft 469 kts 40°
2026-05-07 12:07 41.70037 -1.64970 26598 ft 468 kts 40°
2026-05-07 12:08 41.72562 -1.62223 26871 ft 468 kts 40°
2026-05-07 12:08 41.75090 -1.59470 27136 ft 468 kts 40°
2026-05-07 12:08 41.77614 -1.56717 27405 ft 468 kts 40°
2026-05-07 12:08 41.80099 -1.54002 27667 ft 468 kts 40°
2026-05-07 12:09 41.82626 -1.51240 27943 ft 468 kts 40°
2026-05-07 12:09 41.85149 -1.48483 28216 ft 468 kts 40°
2026-05-07 12:09 41.87669 -1.45722 28477 ft 468 kts 40°
2026-05-07 12:09 41.90185 -1.42964 28759 ft 467 kts 40°
2026-05-07 12:10 41.92702 -1.40201 29042 ft 467 kts 40°
2026-05-07 12:10 41.95222 -1.37434 29323 ft 467 kts 40°
2026-05-07 12:10 41.97733 -1.34672 29613 ft 467 kts 40°
2026-05-07 12:10 42.00245 -1.31901 29906 ft 467 kts 40°
2026-05-07 12:11 42.02754 -1.29136 30143 ft 467 kts 40°
2026-05-07 12:11 42.05263 -1.26370 30383 ft 467 kts 40°
2026-05-07 12:11 42.07767 -1.23605 30626 ft 466 kts 40°
2026-05-07 12:11 42.10278 -1.20827 30864 ft 467 kts 40°
2026-05-07 12:12 42.12788 -1.18045 30954 ft 467 kts 40°
2026-05-07 12:12 42.17803 -1.12501 30966 ft 466 kts 40°
2026-05-07 12:13 42.22816 -1.06934 30970 ft 467 kts 40°
2026-05-07 12:13 42.27826 -1.01351 30969 ft 467 kts 40°
2026-05-07 12:14 42.31985 -0.96709 30970 ft 467 kts 40°
2026-05-07 12:14 42.36996 -0.91108 30967 ft 467 kts 40°
2026-05-07 12:15 42.41981 -0.85475 30965 ft 466 kts 44°
2026-05-07 12:15 42.46158 -0.78812 30967 ft 464 kts 54°
2026-05-07 12:16 42.50095 -0.71880 30964 ft 464 kts 54°
2026-05-07 12:16 42.54030 -0.64951 30966 ft 464 kts 54°
2026-05-07 12:17 42.57961 -0.58009 30968 ft 463 kts 54°
2026-05-07 12:17 42.61873 -0.51073 30967 ft 463 kts 54°
2026-05-07 12:18 42.65787 -0.44123 30969 ft 463 kts 54°
2026-05-07 12:18 42.69699 -0.37171 30968 ft 462 kts 54°
2026-05-07 12:19 42.73604 -0.30218 30971 ft 462 kts 54°
2026-05-07 12:19 42.77471 -0.23294 30967 ft 462 kts 54°
2026-05-07 12:20 42.81409 -0.16301 30970 ft 462 kts 53°
2026-05-07 12:20 42.85465 -0.09549 30974 ft 463 kts 51°
2026-05-07 12:21 42.89600 -0.02825 31004 ft 461 kts 51°
2026-05-07 12:21 42.91652 0.00538 31241 ft 462 kts 51°
2026-05-07 12:21 42.93700 0.03925 31485 ft 462 kts 51°
2026-05-07 12:21 42.95729 0.07313 31743 ft 461 kts 51°
2026-05-07 12:22 42.97742 0.10701 31998 ft 460 kts 52°
2026-05-07 12:22 42.99758 0.14104 32235 ft 460 kts 52°
2026-05-07 12:22 43.01771 0.17501 32496 ft 459 kts 52°
2026-05-07 12:22 43.03780 0.20885 32760 ft 458 kts 52°
2026-05-07 12:23 43.05791 0.24264 33006 ft 458 kts 51°
2026-05-07 12:23 43.07800 0.27634 33264 ft 457 kts 51°
2026-05-07 12:23 43.09807 0.31008 33518 ft 456 kts 51°
2026-05-07 12:23 43.11806 0.34380 33754 ft 456 kts 51°
2026-05-07 12:24 43.13804 0.37755 33944 ft 456 kts 51°
2026-05-07 12:24 43.17799 0.44524 33986 ft 464 kts 51°
2026-05-07 12:25 43.21899 0.51479 33985 ft 473 kts 51°
2026-05-07 12:25 43.26046 0.58527 33990 ft 476 kts 52°
2026-05-07 12:26 43.30196 0.65606 33989 ft 476 kts 52°
2026-05-07 12:26 43.34346 0.72691 33990 ft 476 kts 51°
2026-05-07 12:27 43.38491 0.79773 33990 ft 476 kts 52°
2026-05-07 12:27 43.42632 0.86882 33991 ft 476 kts 52°
2026-05-07 12:28 43.46760 0.94003 33998 ft 476 kts 52°
2026-05-07 12:28 43.50896 1.01141 34004 ft 476 kts 52°
2026-05-07 12:29 43.55034 1.08274 34014 ft 476 kts 52°
2026-05-07 12:29 43.59136 1.15380 34023 ft 477 kts 52°
2026-05-07 12:30 43.63254 1.22545 34030 ft 477 kts 52°
2026-05-07 12:30 43.67375 1.29725 34030 ft 477 kts 52°
2026-05-07 12:31 43.71427 1.37001 34029 ft 477 kts 54°
2026-05-07 12:31 43.75340 1.44422 34026 ft 478 kts 54°
2026-05-07 12:32 43.79242 1.51878 34022 ft 478 kts 54°
2026-05-07 12:32 43.83175 1.59298 34015 ft 479 kts 54°
2026-05-07 12:33 43.89102 1.70460 34010 ft 480 kts 54°
2026-05-07 12:33 43.93023 1.77877 34010 ft 480 kts 54°
2026-05-07 12:34 43.96947 1.85374 34006 ft 480 kts 55°
2026-05-07 12:34 44.00759 1.92988 34010 ft 480 kts 56°
2026-05-07 12:35 44.04523 2.00645 34011 ft 480 kts 56°
2026-05-07 12:35 44.08300 2.08313 34010 ft 481 kts 56°
2026-05-07 12:36 44.12100 2.15986 34009 ft 481 kts 56°
2026-05-07 12:36 44.15893 2.23646 34017 ft 481 kts 56°
2026-05-07 12:37 44.19692 2.31343 34023 ft 481 kts 56°
2026-05-07 12:37 44.23450 2.38989 34028 ft 481 kts 56°
2026-05-07 12:38 44.27224 2.46707 34033 ft 481 kts 56°
2026-05-07 12:38 44.30998 2.54432 34033 ft 482 kts 56°
2026-05-07 12:39 44.31637 2.55742 34032 ft 482 kts 56°